AI7R Weather Reports


time (UTC)temp
C
wind
direction
speed
KPH
gust
KPH
rain 1hr
cm
rain 24hr
cm
rain mn
cm
humidity
%
barometer
mb
20260831050004 21 360 1.6 6.4 0.00 1.68 0.97 61 1014.5
20260831044503 21 360 0.0 4.8 0.00 1.68 0.97 60 1014.5
20260831043003 21 289 0.0 0.0 0.00 1.68 0.97 60 1014.5
20260831041501 21 289 0.0 0.0 0.00 1.68 0.97 59 1014.7
20260831040004 22 288 0.0 0.0 0.00 1.68 0.97 59 1014.7
20260831034501 22 288 0.0 0.0 0.00 1.68 0.97 58 1014.5
20260831033003 22 288 0.0 0.0 0.00 1.68 0.97 57 1014.4
20260831031501 22 288 0.0 4.8 0.00 1.68 0.97 57 1014.2
20260831030004 22 288 0.0 0.0 0.00 1.68 0.97 58 1013.9
20260831024501 22 287 1.6 4.8 0.00 1.68 0.97 57 1013.6
20260831023005 22 282 0.0 3.2 0.00 1.68 0.97 58 1013.5
20260831021500 23 360 0.0 1.6 0.00 1.68 0.97 55 1013.3
20260831014500 24 360 0.0 4.8 0.00 1.68 0.97 49 1013.0
20260831013002 25 360 1.6 9.7 0.00 1.68 0.97 48 1013.0
20260831011500 26 360 0.0 6.4 0.00 1.68 0.97 45 1013.0
20260831010004 27 360 1.6 9.7 0.00 1.68 0.97 44 1012.9
20260831001501 27 360 4.8 16.1 0.00 1.68 0.97 42 1013.0
20260831000004 28 360 1.6 9.7 0.00 1.68 0.97 39 1013.2
20260830234500 28 360 3.2 12.9 0.00 1.73 0.97 39 1013.3
20260830233003 28 360 3.2 14.5 0.00 1.73 0.97 39 1013.4
20260830230004 28 360 1.6 12.9 0.00 1.73 0.97 43 1013.5
20260830224500 28 360 3.2 16.1 0.00 1.88 0.97 44 1013.8
20260830223002 28 360 3.2 17.7 0.00 1.88 0.97 43 1014.0
20260830220003 28 360 3.2 16.1 0.00 1.88 0.97 44 1014.4
20260830211508 27 360 4.8 19.3 0.00 2.08 0.97 45 1015.1
20260830210011 28 360 3.2 12.9 0.00 2.08 0.97 45 1015.3
20260830203010 26 360 3.2 8.0 0.00 2.08 0.97 50 1015.8
20260830201509 26 360 3.2 11.3 0.00 2.08 0.97 49 1016.1
20260830200012 27 360 3.2 11.3 0.00 2.08 0.97 48 1016.1
20260830193009 26 360 1.6 11.3 0.00 2.08 0.97 47 1016.4
20260830191508 26 360 3.2 12.9 0.00 2.08 0.97 46 1016.7
20260830190009 26 360 1.6 9.7 0.00 2.08 0.97 47 1016.8
20260830184507 26 360 3.2 11.3 0.00 2.08 0.97 48 1017.0
20260830183008 26 360 3.2 12.9 0.00 2.08 0.97 48 1017.2
20260830181507 26 360 1.6 8.0 0.00 2.08 0.97 52 1017.3
20260830180010 25 360 3.2 12.9 0.00 2.08 0.97 52 1017.4
20260830174507 24 167 3.2 14.5 0.00 2.08 0.97 52 1017.4
20260830173008 24 360 3.2 11.3 0.00 2.08 0.97 54 1017.4
20260830170009 23 171 3.2 12.9 0.00 2.08 0.97 56 1017.5
20260830164507 22 360 1.6 8.0 0.00 2.08 0.97 58 1017.5
20260830163008 22 360 1.6 4.8 0.00 2.08 0.97 57 1017.4
20260830161507 21 360 0.0 4.8 0.00 2.08 0.97 65 1017.3
20260830154507 20 333 0.0 0.0 0.00 2.08 0.97 66 1017.5
20260830153009 19 360 0.0 0.0 0.00 2.08 0.97 74 1017.4
20260830151507 19 360 0.0 0.0 0.00 2.08 0.97 76 1017.4
20260830150010 18 360 0.0 0.0 0.00 2.08 0.97 75 1017.2
20260830143008 18 360 0.0 0.0 0.00 2.08 0.97 73 1017.0
20260830140009 18 360 0.0 0.0 0.00 2.08 0.97 71 1016.7
20260830134507 17 360 0.0 4.8 0.00 2.08 0.97 71 1016.4
20260830133008 17 79 1.6 8.0 0.00 2.08 0.97 73 1016.5
20260830131508 17 360 3.2 9.7 0.00 2.08 0.97 75 1016.3
20260830121507 16 58 0.0 0.0 0.00 2.08 0.97 77 1015.4
20260830120009 16 52 0.0 4.8 0.00 2.08 0.97 78 1015.3
20260830114507 16 53 3.2 8.0 0.00 2.08 0.97 81 1015.4
20260830113008 16 61 3.2 6.4 0.00 2.08 0.97 84 1015.4
20260830111507 15 25 4.8 8.0 0.00 2.08 0.97 87 1015.4
20260830110010 15 360 1.6 6.4 0.00 2.08 0.97 90 1015.5
20260830104507 15 360 0.0 0.0 0.03 2.08 0.97 89 1015.6
20260830103008 16 360 0.0 0.0 0.05 2.08 0.97 88 1015.8
20260830101509 16 360 0.0 0.0 0.05 2.08 0.97 86 1015.6
20260830100009 16 360 4.8 16.1 0.05 2.08 0.97 86 1015.3
20260830094507 16 360 9.7 20.9 0.03 2.06 0.94 88 1014.4
20260830093008 16 360 4.8 12.9 0.00 2.03 0.91 92 1016.0
20260830091507 16 360 1.6 8.0 0.00 2.03 0.91 92 1016.8
20260830090009 16 360 3.2 6.4 0.00 2.03 0.91 92 1016.4
20260830084507 16 360 1.6 6.4 0.03 2.03 0.91 93 1016.1
20260830083008 16 360 0.0 4.8 0.05 2.03 0.91 92 1016.1
20260830081507 16 360 1.6 9.7 0.69 2.03 0.91 92 1016.0
20260830080010 16 360 6.4 12.9 0.89 2.01 0.89 92 1016.2
20260830074507 16 360 4.8 11.3 0.89 2.01 0.89 91 1017.2
20260830071507 16 360 1.6 9.7 0.25 1.35 0.23 91 1017.9
20260830070011 16 332 0.0 6.4 0.28 1.12 0.00 88 1017.5
20260830063008 17 360 1.6 6.4 0.61 1.12 1.12 87 1017.0
20260830061507 17 360 4.8 16.1 0.69 1.09 1.09 87 1016.8
20260830060010 17 57 3.2 8.0 0.43 0.84 0.84 87 1016.8
20260830054506 18 62 4.8 14.5 0.38 0.79 0.79 82 1016.6
20260830053008 -17 148 1.6 6.4 0.10 0.51 0.51 72 1016.6
20260830051507 22 360 1.6 6.4 0.00 0.41 0.41 59 1015.4